sat.trackr.live / text

‹ back to catalog

STARLINK-30222

NORAD 57409 · 2023-102F

PAYLOAD ACTIVE UNKNOWN

§ Identity

Operator
Country
US
Launch date
2023-07-20
Launch site
AFWTR
Launch vehicle
Mass (kg)
RCS (m²)

Purposes: comms

External: N2YO · Heavens-Above · Gunter

§ Orbital elements

Epoch: 2026-09-20T22:48:54.228096Z

Period
94.27 min
Inclination
43.0040°
Eccentricity
0.0001113
Mean motion
15.27567228 rev/d
Perigee alt
482.3 km
Apogee alt
483.9 km
Semi-major
6,861.2 km
B*
9.5050e-6
RAAN
225.7655°
Arg perigee
279.4418°
Mean anomaly
80.6307°
Rev number
17,610

§ Raw data

STARLINK-302221 57409U 23102F   26263.95062764 -.00000001  00000+0  95050-5 0  99962 57409  43.0040 225.7655 0001113 279.4418  80.6307 15.27567228176105

JSON: /api/v1/satellites/57409 · /tle

For live sub-satellite position, see the globe view (requires WebGL).

§ Visibility from observer

Set your observer location to see the next 7 days of passes ≥ 10°. The values pass through the URL so the page stays shareable.

No JS? Fill the form by hand. The geolocation button needs JavaScript.